Location: Bruch
(44.2051°N, 0.4120°E)
Time: 17:39:48
(UTC+00:00)

ERS-2 - Visible Passes

Search period start: 16 April 2021 00:00
Search period end: 26 April 2021 00:00
Orbit: 492 x 496 km, 98.6° (Epoch: 15 April)

Date Brightness Start Highest point End Pass type
(mag) Time Alt. Az. Time Alt. Az. Time Alt. Az.
16 Apr 4.1 19:55:35 10° N 19:58:54 33° WNW 20:02:12 10° SW visible
17 Apr 2.7 19:33:59 10° N 19:37:36 62° WNW 19:41:11 10° SSW visible
18 Apr 2.1 19:12:35 10° NNE 19:16:14 68° ESE 19:19:50 10° S visible
18 Apr 6.0 20:49:06 10° WNW 20:49:12 10° WNW 20:49:17 10° WNW visible
19 Apr 5.3 20:25:38 10° NNW 20:28:03 17° WNW 20:30:28 10° WSW visible
20 Apr 4.4 20:03:39 10° N 20:06:50 29° WNW 20:09:59 10° SW visible
21 Apr 3.0 19:41:59 10° N 19:45:32 53° WNW 19:49:05 10° SSW visible
22 Apr 2.0 19:20:31 10° NNE 19:24:11 80° ESE 19:27:48 10° SSW visible
23 Apr 5.4 20:33:48 10° NNW 20:35:55 15° WNW 20:38:03 10° W visible
24 Apr 4.6 20:11:41 10° N 20:14:43 25° WNW 20:17:44 10° WSW visible
25 Apr 3.4 19:49:56 10° N 19:53:26 45° WNW 19:56:55 10° SW visible
